SCP
0 0 0 0 0 0 0 0 0 0 0 0 0 0 0 0 0 0 0 0 0 0 -0 -0 -0 -0 -0 -0 -0 0 -0 -0 -0 -0 0 0 0 0 0 0 0 0 0
0 0 0 0 0 0 0 0 0 0 0 0 0 0 0 0 0 0 0 0 0 0 0 -0 -0 -0 -0 -0 0 -0 -0 -0 -0 -0 0 0 0 0 0 0 0 0 0
0 0 0 0 0 0 0 0 0 0 0 0 0 0 0 0 0 0 0 0 0 0 0 0 -0 -0 0 -0 -0 -0 -0 -0 0 -0 0 0 0 0 0 0 0 0 0
0 0 0 0 0 0 0 0 0 0 0 0 0 0 0 0 0 0 0 0 0 0 0 0 0 0 0 -0 -0 -0 0 0 0 0 0 0 0 0 0 0 0 0 0
0 0 0 0 0 0 0 0 0 0 0 0 0 0 0 0 0 0 0 0 0 0 0 0 0 0 0 0 -0 -0 -0 -0 -0 0 0 0 0 0 0 0 0 0 0
0 0 0 0 0 0 0 0 0 0 0 0 0 0 0 0 0 0 0 0 0 0 0 0 0 0 0 0 0 -0 -0 -0 -0 0 0 0 0 -0 0 0 0 0 0
0 0 0 0 0 0 0 0 0 0 0 0 0 0 0 0 0 0 0 0 0 0 0 0 0 0 0 0 -0 -0 -0 -0 -0 -0 0 0 -0 -0 -0 0 0 0 0
0 0 0 0 0 0 0 0 0 0 0 0 0 0 0 0 0 0 0 0 0 0 0 0 0 -0 0 0 0 -0 -0 -0 -0 -0 -0 0 -0 0 0 0 0 0 0
0 0 0 0 0 0 0 0 0 0 0 0 0 -0 -0 0 0 0 0 0 0 0 0 0 0 -0 0 0 0 0 -0 -0 -0 -0 -0 -0 0 0 0 0 0 0 0
0 0 0 0 0 0 0 0 0 0 0 0 -0 0 0 0 -0 0 0 0 0 0 0 0 0 0 0 0 0 0 0 0 -0 -0 -0 -0 0 0 0 0 0 0 0
0 0 0 0 0 0 0 0 0 0 0 0 0 0 0 0 0 -0 -0 0 0 0 0 0 0 -0 -0 -0 -0 0 0 0 0 0 0 -0 -0 -0 0 0 0 0 0
0 0 0 0 0 0 0 0 0 0 0 0 0 0 0 -0 -0 -0 -0 0 -0 -0 -0 -0 -0 -0 -0 -0 -0 0 -0 0 0 0 0 0 -0 -0 0 0 0 0 0
0 0 0 0 0 0 0 0 0 0 0 0 0 0 0 0 0 -0 -0 -0 -0 -0 -0 0 -0 -0 -0 -0 -0 0 -0 -0 -0 -0 -0 0 0 -0 -0 -0 0 0 0
0 0 0 0 0 0 0 0 0 0 0 0 0 0 0 0 0 -0 -0 -0 -0 -0 -0 0 -0 -0 -0 -0 -0 -0 -0 -0 -0 0 -0 0 0 0 0 0 0 0 0
0 0 0 0 0 0 0 0 0 0 0 0 0 0 0 -0 -0 -0 -0 -0 -0 -0 -0 -0 -0 -0 -0 -0 -0 -0 -0 -0 -0 -0 0 0 0 0 0 0 0 0 0
0 0 0 0 0 0 0 0 0 0 0 0 0 0 0 0 0 -0 -0 -0 -0 -0 -0 -0 -0 -0 -0 -0 -0 -0 -0 -0 -0 -0 -0 0 0 -0 -0 -0 0 0 0
0 0 0 0 0 0 0 0 0 0 0 0 0 0 0 0 0 -0 -0 -0 -0 -0 -0 -0 -0 -0 -0 -0 -0 -0 -0 -0 -0 -0 -0 -0 -0 0 0 0 0 0 0
0 0 0 0 0 0 0 0 0 0 0 0 0 0 0 -0 -0 -0 -0 -0 -0 -0 -0 -0 -0 -0 -0 -0 -0 -0 -0 -0 -0 -0 -0 -0 -0 -0 0 0 0 0 0
0 0 0 0 0 0 0 0 0 0 0 0 0 0 0 0 0 -0 -0 -0 -0 -0 -0 -0 -0 -0 -0 -0 -0 -0 -0 -0 -0 -0 -0 -0 -0 -0 -0 -0 0 0 0
0 0 0 0 0 0 0 0 0 0 0 0 0 0 0 0 0 0 -0 -0 -0 -0 -0 -0 -0 -0 -0 -0 -0 -0 -0 -0 -0 -0 -0 -0 -0 -0 -0 -0 -0 0 0
0 0 0 0 0 0 0 0 0 0 0 0 0 0 0 0 -0 -0 -0 -0 -0 -0 -0 -0 -0 -0 -0 -0 -0 -0 -0 -0 -0 -0 -0 -0 -0 -0 -0 -0 -0 0 0
0 0 0 0 0 0 0 0 0 0 0 0 0 0 0 0 0 0 0 -0 -0 -0 -0 -0 -0 -0 -0 -0 -0 -0 -0 -0 -0 -0 -0 -0 -0 -0 -0 -0 -0 0 0
0 0 0 0 0 0 0 0 0 0 0 0 0 0 0 0 0 0 0 0 0 -0 -0 -0 -0 -0 -0 0 0 0 0 0 -0 -0 -0 -0 -0 -0 -0 -0 -0 0 0
0 0 0 0 0 0 0 0 0 0 0 0 0 0 0 0 0 0 0 0 0 0 0 0 0 0 0 0 0 0 0 0 0 0 -0 -0 -0 -0 -0 -0 -0 -0 0
0 0 0 0 0 0 0 0 0 0 0 0 0 0 0 0 0 0 0 0 0 0 0 0 0 0 0 0 0 0 0 0 0 0 -0 -0 -0 -0 -0 -0 -0 -0 -0
0 0 0 0 0 0 0 0 0 0 0 0 0 0 0 0 0 0 0 0 0 0 0 0 0 0 0 0 0 0 0 0 0 0 0 -0 -0 -0 -0 -0 -0 -0 -0
Wind_Speed_500mb
24 22 19 16 18 22 26 29 32 35 39 36 27 33 42 45 48 49 50 44 42 39 40 35 30 34 31 22 12 4 20 25 27 25 43 41 51 52 69 79 68 72 66
24 20 21 23 17 22 27 30 33 34 37 36 25 23 35 45 51 53 54 53 47 42 35 32 31 24 20 17 12 8 11 18 20 27 25 50 44 52 69 74 62 74 69
25 27 28 28 24 22 25 27 28 29 36 37 30 21 30 36 46 53 60 57 57 53 38 31 28 24 19 14 16 13 8 11 22 24 26 42 46 44 58 73 72 74 72
26 27 29 30 28 27 26 28 31 31 34 36 30 24 28 32 45 56 58 57 57 56 54 43 33 29 24 23 22 19 20 30 31 30 30 34 47 59 63 79 75 80 79
24 25 25 28 29 32 37 33 29 31 34 33 26 24 22 33 46 52 59 58 61 54 50 51 41 37 33 29 26 26 28 28 28 36 43 48 57 62 74 70 82 82 84
22 23 24 26 28 31 37 39 39 34 37 39 26 18 14 30 37 54 56 60 64 58 55 58 49 43 40 37 29 29 32 33 37 42 46 50 51 51 66 72 83 87 90
23 24 27 27 30 34 36 38 40 43 46 50 31 28 19 13 50 51 52 59 64 65 58 55 52 59 53 48 34 29 30 38 40 40 42 50 52 50 53 72 86 88 93
19 20 22 25 26 28 31 35 39 39 40 50 54 26 22 16 51 38 49 56 59 59 60 58 59 61 68 64 61 59 40 36 44 49 49 52 62 55 65 75 85 87 94
14 14 16 18 20 23 30 32 35 37 36 38 42 38 20 22 48 35 53 56 61 59 49 52 59 64 70 68 69 68 67 52 37 48 51 57 48 69 78 84 83 93 98
12 15 18 19 21 21 23 30 31 33 33 38 35 34 29 32 32 30 56 62 64 56 50 50 60 64 73 73 71 69 74 72 64 47 53 53 51 62 85 99 92 100 107
10 11 13 15 17 21 25 24 25 28 32 32 35 34 32 29 36 30 36 70 59 60 41 44 58 70 77 80 77 72 74 76 74 69 62 55 54 52 57 89 106 101 109
9 11 13 15 17 17 19 23 26 24 27 28 30 36 40 43 45 45 47 64 54 61 44 32 61 81 85 84 82 87 80 78 76 74 75 69 57 59 55 74 99 95 113
13 17 19 19 21 23 24 24 23 25 29 32 35 39 42 44 45 47 50 52 44 59 57 33 70 70 87 90 90 89 94 87 81 77 74 76 73 67 51 53 87 91 105
27 28 29 30 31 30 31 32 34 37 38 39 40 41 42 45 45 47 48 49 57 49 55 47 79 80 87 92 95 97 93 98 92 84 82 76 73 75 73 65 50 67 104
28 28 28 29 30 30 31 31 33 35 35 37 40 43 46 49 51 52 52 48 44 34 46 54 64 95 91 89 94 97 103 102 108 97 86 86 79 74 74 76 76 65 42
27 26 26 26 26 27 28 29 32 35 35 38 41 43 45 48 49 51 54 50 46 36 33 61 80 87 101 102 99 97 97 103 108 111 111 90 83 79 75 76 78 78 75
24 23 23 23 24 26 28 30 31 33 35 38 40 42 45 50 53 54 54 53 52 49 50 68 68 87 95 104 110 114 111 105 106 113 112 112 102 81 68 75 82 79 79
20 20 21 21 22 24 26 29 32 34 37 39 43 45 51 55 60 60 59 61 61 59 59 66 76 98 101 103 110 114 121 118 113 108 113 112 86 99 85 74 74 81 79
19 18 19 19 21 23 26 29 32 34 37 40 43 49 56 60 63 63 65 67 67 66 67 67 75 80 93 106 114 113 113 114 120 121 107 108 108 109 101 89 76 71 80
15 16 17 18 20 21 24 28 31 32 36 41 46 50 55 59 60 62 63 65 66 67 66 63 68 86 88 102 98 110 119 116 122 118 113 113 112 99 87 84 83 70 64
13 14 14 14 18 21 27 26 28 33 38 42 46 47 51 53 61 62 62 63 65 66 61 64 60 76 86 101 101 110 105 104 110 103 123 127 123 119 109 78 68 74 61
11 10 10 13 17 21 23 25 29 34 37 40 42 42 44 52 50 55 58 60 63 62 61 61 57 66 69 72 85 90 96 99 101 99 112 122 116 93 90 105 104 92 68
9 6 8 10 13 17 21 27 30 33 35 37 39 39 42 47 49 51 53 55 55 57 58 58 60 62 68 66 76 84 84 91 99 108 88 111 97 112 108 114 102 89 73
6 3 4 8 11 14 20 25 30 30 31 32 34 38 39 42 47 51 52 53 54 54 57 59 64 67 67 71 66 62 66 79 101 97 73 81 87 109 118 114 91 72 74
7 5 4 6 10 14 19 24 26 24 24 25 30 33 37 40 45 50 52 55 56 55 59 64 68 71 72 69 66 68 75 75 92 105 91 74 92 97 106 107 80 82 81
10 8 7 9 11 15 15 19 19 17 18 21 24 27 34 40 44 49 52 55 58 61 66 68 69 71 73 73 70 61 52 61 74 93 73 86 93 86 89 79 102 97 106
Wind_Direction_500mb
11 13 20 30 24 20 15 14 12 13 12 16 18 26 30 33 24 23 22 17 7 8 8 2 6 21 27 21 22 324 265 261 262 274 264 252 246 239 226 198 204 213 212
14 23 32 35 41 25 16 13 10 12 15 12 22 22 25 28 27 24 21 22 18 11 10 10 2 15 34 40 41 8 311 282 258 272 258 250 253 248 232 235 208 215 215
27 39 36 32 32 21 13 10 15 17 18 20 20 29 32 27 28 25 21 22 22 20 17 13 4 354 347 344 346 331 279 278 264 258 240 250 231 239 236 250 218 217 217
38 40 38 33 26 19 17 13 10 16 21 22 36 46 41 38 34 29 25 26 23 24 24 19 13 358 342 325 314 312 300 288 275 261 258 252 240 253 247 226 219 221 219
45 39 38 33 31 29 30 25 17 16 18 26 34 39 51 39 32 29 29 28 23 24 23 21 20 11 356 334 316 304 294 300 288 282 280 274 263 255 246 235 216 218 221
47 42 42 35 32 31 31 33 32 25 18 17 17 27 47 32 18 25 24 26 27 27 27 29 27 21 10 5 349 321 300 285 284 285 285 276 275 262 236 228 219 216 220
49 46 45 41 39 37 32 30 34 32 23 20 17 20 19 14 13 20 19 24 25 25 24 27 32 32 26 24 19 353 311 293 284 280 281 279 280 250 230 220 218 220 220
44 39 36 34 31 31 31 29 27 31 29 24 24 13 9 12 2 11 15 17 19 17 22 16 18 15 16 16 14 16 3 309 296 290 278 284 269 251 227 222 222 222 222
26 22 28 28 25 25 33 30 28 28 27 25 31 37 8 359 360 353 6 2 10 13 14 14 9 8 10 8 6 5 4 6 319 293 289 291 285 256 237 235 232 224 225
25 32 37 38 35 31 31 31 32 31 28 30 34 38 34 30 356 332 353 0 7 11 8 7 1 5 4 4 4 4 360 355 356 338 301 295 281 279 260 237 238 237 226
39 44 43 42 40 38 38 32 30 33 37 41 40 28 19 19 17 5 345 346 359 4 6 12 358 352 353 354 353 356 356 353 349 345 346 306 299 296 280 248 239 240 228
84 64 52 48 47 45 40 39 38 32 34 34 29 27 25 25 15 15 355 352 355 1 356 6 355 343 347 349 347 347 346 347 346 342 341 339 321 300 289 263 244 239 230
87 75 67 64 61 54 48 45 40 38 36 35 35 33 28 26 22 15 9 1 348 356 355 344 351 346 348 348 345 343 341 339 340 337 336 334 327 332 300 307 248 243 228
90 81 75 71 69 65 61 57 53 51 49 44 42 36 32 29 24 20 17 10 358 354 355 333 351 349 347 346 342 339 339 336 336 333 330 330 326 323 318 322 314 255 247
90 84 78 74 71 67 61 56 52 48 44 42 40 33 30 29 22 19 18 17 16 355 344 339 349 343 342 340 338 336 336 334 333 333 330 331 327 318 315 314 311 303 351
96 92 84 75 68 62 59 56 54 51 46 41 36 30 24 22 16 12 12 12 11 4 337 335 340 340 340 338 335 330 329 327 326 328 331 330 329 322 311 307 306 307 307
103 93 83 75 70 64 59 55 51 46 38 34 29 24 20 19 16 15 13 12 8 2 346 343 342 343 343 339 336 335 332 327 323 322 323 328 334 324 320 303 301 301 299
103 92 84 77 70 66 58 49 41 37 33 30 30 29 27 23 21 20 16 12 7 3 354 344 346 347 345 344 341 336 333 334 330 324 325 327 332 323 323 319 306 296 296
107 96 87 80 68 57 47 43 41 39 38 37 36 32 30 27 25 22 17 13 8 3 358 352 347 348 347 345 342 340 339 333 332 334 329 327 326 328 330 325 322 318 301
109 96 83 71 63 54 50 50 49 48 46 43 39 36 33 32 30 25 20 15 9 5 1 356 351 348 349 348 347 346 343 339 338 335 335 331 329 329 334 334 335 329 319
109 91 76 61 53 51 53 58 57 54 50 46 42 41 37 37 35 29 22 18 12 8 3 358 353 350 349 348 346 342 339 339 338 335 333 335 335 331 331 326 320 323 322
114 95 72 55 54 58 67 67 64 58 55 53 49 45 40 38 32 29 26 22 16 9 5 358 351 348 346 341 340 339 336 334 332 336 335 331 336 335 329 323 322 317 314
132 102 70 68 69 72 76 74 71 64 60 57 51 45 40 33 25 23 20 17 12 9 3 357 347 348 342 341 338 335 332 329 325 328 332 328 333 326 331 330 328 327 327
152 126 99 92 88 92 93 83 77 69 61 54 46 39 33 27 19 15 11 9 6 2 356 353 348 347 345 342 337 330 326 322 325 328 329 323 322 324 326 327 332 330 323
197 195 160 124 122 115 107 93 82 73 60 47 39 31 24 19 10 7 4 360 358 355 353 350 347 346 344 343 342 336 335 329 326 327 335 324 321 322 324 325 326 323 328
214 207 187 172 157 130 113 98 86 67 47 34 26 18 14 9 2 359 357 353 350 348 347 346 345 343 342 341 341 339 330 325 323 323 329 325 321 324 322 320 319 324 329
Wind_Speed_850mb
24 22 19 16 18 22 26 29 32 35 39 36 27 33 42 45 48 49 50 44 42 39 40 35 30 34 31 22 12 4 20 25 27 25 43 41 51 52 69 79 68 72 66
24 20 21 23 17 22 27 30 33 34 37 36 25 23 35 45 51 53 54 53 47 42 35 32 31 24 20 17 12 8 11 18 20 27 25 50 44 52 69 74 62 74 69
25 27 28 28 24 22 25 27 28 29 36 37 30 21 30 36 46 53 60 57 57 53 38 31 28 24 19 14 16 13 8 11 22 24 26 42 46 44 58 73 72 74 72
26 27 29 30 28 27 26 28 31 31 34 36 30 24 28 32 45 56 58 57 57 56 54 43 33 29 24 23 22 19 20 30 31 30 30 34 47 59 63 79 75 80 79
24 25 25 28 29 32 37 33 29 31 34 33 26 24 22 33 46 52 59 58 61 54 50 51 41 37 33 29 26 26 28 28 28 36 43 48 57 62 74 70 82 82 84
22 23 24 26 28 31 37 39 39 34 37 39 26 18 14 30 37 54 56 60 64 58 55 58 49 43 40 37 29 29 32 33 37 42 46 50 51 51 66 72 83 87 90
23 24 27 27 30 34 36 38 40 43 46 50 31 28 19 13 50 51 52 59 64 65 58 55 52 59 53 48 34 29 30 38 40 40 42 50 52 50 53 72 86 88 93
19 20 22 25 26 28 31 35 39 39 40 50 54 26 22 16 51 38 49 56 59 59 60 58 59 61 68 64 61 59 40 36 44 49 49 52 62 55 65 75 85 87 94
14 14 16 18 20 23 30 32 35 37 36 38 42 38 20 22 48 35 53 56 61 59 49 52 59 64 70 68 69 68 67 52 37 48 51 57 48 69 78 84 83 93 98
12 15 18 19 21 21 23 30 31 33 33 38 35 34 29 32 32 30 56 62 64 56 50 50 60 64 73 73 71 69 74 72 64 47 53 53 51 62 85 99 92 100 107
10 11 13 15 17 21 25 24 25 28 32 32 35 34 32 29 36 30 36 70 59 60 41 44 58 70 77 80 77 72 74 76 74 69 62 55 54 52 57 89 106 101 109
9 11 13 15 17 17 19 23 26 24 27 28 30 36 40 43 45 45 47 64 54 61 44 32 61 81 85 84 82 87 80 78 76 74 75 69 57 59 55 74 99 95 113
13 17 19 19 21 23 24 24 23 25 29 32 35 39 42 44 45 47 50 52 44 59 57 33 70 70 87 90 90 89 94 87 81 77 74 76 73 67 51 53 87 91 105
27 28 29 30 31 30 31 32 34 37 38 39 40 41 42 45 45 47 48 49 57 49 55 47 79 80 87 92 95 97 93 98 92 84 82 76 73 75 73 65 50 67 104
28 28 28 29 30 30 31 31 33 35 35 37 40 43 46 49 51 52 52 48 44 34 46 54 64 95 91 89 94 97 103 102 108 97 86 86 79 74 74 76 76 65 42
27 26 26 26 26 27 28 29 32 35 35 38 41 43 45 48 49 51 54 50 46 36 33 61 80 87 101 102 99 97 97 103 108 111 111 90 83 79 75 76 78 78 75
24 23 23 23 24 26 28 30 31 33 35 38 40 42 45 50 53 54 54 53 52 49 50 68 68 87 95 104 110 114 111 105 106 113 112 112 102 81 68 75 82 79 79
20 20 21 21 22 24 26 29 32 34 37 39 43 45 51 55 60 60 59 61 61 59 59 66 76 98 101 103 110 114 121 118 113 108 113 112 86 99 85 74 74 81 79
19 18 19 19 21 23 26 29 32 34 37 40 43 49 56 60 63 63 65 67 67 66 67 67 75 80 93 106 114 113 113 114 120 121 107 108 108 109 101 89 76 71 80
15 16 17 18 20 21 24 28 31 32 36 41 46 50 55 59 60 62 63 65 66 67 66 63 68 86 88 102 98 110 119 116 122 118 113 113 112 99 87 84 83 70 64
13 14 14 14 18 21 27 26 28 33 38 42 46 47 51 53 61 62 62 63 65 66 61 64 60 76 86 101 101 110 105 104 110 103 123 127 123 119 109 78 68 74 61
11 10 10 13 17 21 23 25 29 34 37 40 42 42 44 52 50 55 58 60 63 62 61 61 57 66 69 72 85 90 96 99 101 99 112 122 116 93 90 105 104 92 68
9 6 8 10 13 17 21 27 30 33 35 37 39 39 42 47 49 51 53 55 55 57 58 58 60 62 68 66 76 84 84 91 99 108 88 111 97 112 108 114 102 89 73
6 3 4 8 11 14 20 25 30 30 31 32 34 38 39 42 47 51 52 53 54 54 57 59 64 67 67 71 66 62 66 79 101 97 73 81 87 109 118 114 91 72 74
7 5 4 6 10 14 19 24 26 24 24 25 30 33 37 40 45 50 52 55 56 55 59 64 68 71 72 69 66 68 75 75 92 105 91 74 92 97 106 107 80 82 81
10 8 7 9 11 15 15 19 19 17 18 21 24 27 34 40 44 49 52 55 58 61 66 68 69 71 73 73 70 61 52 61 74 93 73 86 93 86 89 79 102 97 106
Wind_Direction_850mb
11 13 20 30 24 20 15 14 12 13 12 16 18 26 30 33 24 23 22 17 7 8 8 2 6 21 27 21 22 324 265 261 262 274 264 252 246 239 226 198 204 213 212
14 23 32 35 41 25 16 13 10 12 15 12 22 22 25 28 27 24 21 22 18 11 10 10 2 15 34 40 41 8 311 282 258 272 258 250 253 248 232 235 208 215 215
27 39 36 32 32 21 13 10 15 17 18 20 20 29 32 27 28 25 21 22 22 20 17 13 4 354 347 344 346 331 279 278 264 258 240 250 231 239 236 250 218 217 217
38 40 38 33 26 19 17 13 10 16 21 22 36 46 41 38 34 29 25 26 23 24 24 19 13 358 342 325 314 312 300 288 275 261 258 252 240 253 247 226 219 221 219
45 39 38 33 31 29 30 25 17 16 18 26 34 39 51 39 32 29 29 28 23 24 23 21 20 11 356 334 316 304 294 300 288 282 280 274 263 255 246 235 216 218 221
47 42 42 35 32 31 31 33 32 25 18 17 17 27 47 32 18 25 24 26 27 27 27 29 27 21 10 5 349 321 300 285 284 285 285 276 275 262 236 228 219 216 220
49 46 45 41 39 37 32 30 34 32 23 20 17 20 19 14 13 20 19 24 25 25 24 27 32 32 26 24 19 353 311 293 284 280 281 279 280 250 230 220 218 220 220
44 39 36 34 31 31 31 29 27 31 29 24 24 13 9 12 2 11 15 17 19 17 22 16 18 15 16 16 14 16 3 309 296 290 278 284 269 251 227 222 222 222 222
26 22 28 28 25 25 33 30 28 28 27 25 31 37 8 359 360 353 6 2 10 13 14 14 9 8 10 8 6 5 4 6 319 293 289 291 285 256 237 235 232 224 225
25 32 37 38 35 31 31 31 32 31 28 30 34 38 34 30 356 332 353 0 7 11 8 7 1 5 4 4 4 4 360 355 356 338 301 295 281 279 260 237 238 237 226
39 44 43 42 40 38 38 32 30 33 37 41 40 28 19 19 17 5 345 346 359 4 6 12 358 352 353 354 353 356 356 353 349 345 346 306 299 296 280 248 239 240 228
84 64 52 48 47 45 40 39 38 32 34 34 29 27 25 25 15 15 355 352 355 1 356 6 355 343 347 349 347 347 346 347 346 342 341 339 321 300 289 263 244 239 230
87 75 67 64 61 54 48 45 40 38 36 35 35 33 28 26 22 15 9 1 348 356 355 344 351 346 348 348 345 343 341 339 340 337 336 334 327 332 300 307 248 243 228
90 81 75 71 69 65 61 57 53 51 49 44 42 36 32 29 24 20 17 10 358 354 355 333 351 349 347 346 342 339 339 336 336 333 330 330 326 323 318 322 314 255 247
90 84 78 74 71 67 61 56 52 48 44 42 40 33 30 29 22 19 18 17 16 355 344 339 349 343 342 340 338 336 336 334 333 333 330 331 327 318 315 314 311 303 351
96 92 84 75 68 62 59 56 54 51 46 41 36 30 24 22 16 12 12 12 11 4 337 335 340 340 340 338 335 330 329 327 326 328 331 330 329 322 311 307 306 307 307
103 93 83 75 70 64 59 55 51 46 38 34 29 24 20 19 16 15 13 12 8 2 346 343 342 343 343 339 336 335 332 327 323 322 323 328 334 324 320 303 301 301 299
103 92 84 77 70 66 58 49 41 37 33 30 30 29 27 23 21 20 16 12 7 3 354 344 346 347 345 344 341 336 333 334 330 324 325 327 332 323 323 319 306 296 296
107 96 87 80 68 57 47 43 41 39 38 37 36 32 30 27 25 22 17 13 8 3 358 352 347 348 347 345 342 340 339 333 332 334 329 327 326 328 330 325 322 318 301
109 96 83 71 63 54 50 50 49 48 46 43 39 36 33 32 30 25 20 15 9 5 1 356 351 348 349 348 347 346 343 339 338 335 335 331 329 329 334 334 335 329 319
109 91 76 61 53 51 53 58 57 54 50 46 42 41 37 37 35 29 22 18 12 8 3 358 353 350 349 348 346 342 339 339 338 335 333 335 335 331 331 326 320 323 322
114 95 72 55 54 58 67 67 64 58 55 53 49 45 40 38 32 29 26 22 16 9 5 358 351 348 346 341 340 339 336 334 332 336 335 331 336 335 329 323 322 317 314
132 102 70 68 69 72 76 74 71 64 60 57 51 45 40 33 25 23 20 17 12 9 3 357 347 348 342 341 338 335 332 329 325 328 332 328 333 326 331 330 328 327 327
152 126 99 92 88 92 93 83 77 69 61 54 46 39 33 27 19 15 11 9 6 2 356 353 348 347 345 342 337 330 326 322 325 328 329 323 322 324 326 327 332 330 323
197 195 160 124 122 115 107 93 82 73 60 47 39 31 24 19 10 7 4 360 358 355 353 350 347 346 344 343 342 336 335 329 326 327 335 324 321 322 324 325 326 323 328
214 207 187 172 157 130 113 98 86 67 47 34 26 18 14 9 2 359 357 353 350 348 347 346 345 343 342 341 341 339 330 325 323 323 329 325 321 324 322 320 319 324 329